Regional Weather Roundup
Issued by NWS

Home | Current Version | Previous Version | Graphics & Text | Print | Product List | Glossary Off
Versions: 1 2 3 4 5 6 7 8 9 10 11 12 13 14 15 16 17 18 19 20 21 22 23 24 25 26 27 28 29 30 31 32 33 34 35 36 37 38 39 40 41 42 43 44 45 46 47 48 49 50

000
ASUS43 KTOP 311959
RWRKS

WEATHER ROUNDUP FOR KANSAS
NATIONAL WEATHER SERVICE GOODLAND KS
200 PM CST SAT JAN 31 2015

NOTE:  "FAIR" INDICATES FEW OR NO CLOUDS BELOW 12,000 FEET WITH NO
SIGNIFICANT WEATHER AND/OR OBSTRUCTIONS TO VISIBILITY.

KSZ001>006-013>018-027>032-041>047-312100-
NORTHWEST KANSAS

CITY           SKY/WX    TMP DP  RH WIND       PRES   REMARKS
GOODLAND       CLOUDY    38  34  85 NW8       29.81F
HAYS           CLOUDY    37  30  75 S12       29.89F WCI  30
HILL CITY      LGT RAIN  38  36  92 S12       29.86F WCI  30
RUSSELL        LGT RAIN  38  37  97 S10       29.89F WCI  31
$$

KSZ061>065-074>080-084>089-312100-
SOUTHWEST KANSAS

CITY           SKY/WX    TMP DP  RH WIND       PRES   REMARKS
DODGE CITY     CLOUDY    38  35  89 S16       29.87F WCI  29
ELKHART          N/A     40  32  74 SW12        N/A  WCI  33
GARDEN CITY    CLOUDY    39  37  92 S15       29.83F WCI  31
LIBERAL        CLOUDY    39  36  87 S20       29.87F WCI  30
$$

KSZ066>073-081>083-090>101-312100-
SOUTHEAST KANSAS

CITY           SKY/WX    TMP DP  RH WIND       PRES   REMARKS
CHANUTE        LGT RAIN  39  35  86 S9        30.10F
COFFEYVILLE    LGT RAIN  41  35  79 S6        30.12F
HUTCHINSON     LGT RAIN  40  37  89 S18       29.97F FOG     WCI  31
MEDICINE LODGE   N/A     39  39 100 S12G20    29.93F WCI  32
NEWTON         CLOUDY    39  34  81 S15       30.00F WCI  31
PARSONS        LGT RAIN  41  34  76 S7        30.12F
WICHITA INTL   LGT RAIN  40  38  93 S16       30.00F WCI  31
WICHITA JABRA  LGT RAIN  39  39 100 S15       29.99F WCI  31
WINFIELD       LGT RAIN  40  31  70 S14       30.02F WCI  32
$$

KSZ007>012-019>026-033>040-048>060-102>105-312100-
NORTHEAST KANSAS

CITY           SKY/WX    TMP DP  RH WIND       PRES   REMARKS
CONCORDIA      LGT RAIN  33  33 100 SE17      29.96F FOG     WCI  22
EMPORIA        LGT RAIN  37  37 100 SE13      30.05F FOG     WCI  29
LAWRENCE       LGT RAIN  37  35  92 S8        30.11F FOG
MANHATTAN      LGT RAIN  35  35 100 SE8       30.03F FOG
OLATHE IND     LGT RAIN  37  35  92 S12       30.12F FOG     WCI  29
OLATHE EXE     LGT RAIN  38  35  89 S12       30.10F FOG     WCI  30
SALINA         LGT RAIN  40  37  89 S13       29.97F FOG     WCI  32
TOPEKA BILLARD LGT RAIN  36  34  92 SE9       30.09F FOG
TOPEKA FORBES  LGT RAIN  37  34  89 SE9       30.07F FOG
$$



USA.gov is the U.S. government's official web portal to all federal, state and local government web resources and services.